Temperature
12 12 12 12 12 12 12 12 12 11 11 11 11 11 11 11 11 11 11 11 11 11 11 11 11 11 11 11 11 11 11 11 11 11 10 10 10 10 10 10 10 10 11
12 12 12 12 11 11 11 11 11 11 11 11 11 11 11 11 11 11 11 11 10 10 11 11 11 10 10 10 10 10 10 10 10 10 10 10 10 10 10 10 10 10 10
12 12 11 11 11 11 11 11 11 10 10 10 10 10 10 10 10 10 10 10 10 10 10 10 10 10 10 10 10 10 10 10 10 10 10 10 10 10 10 10 10 10 9
11 11 11 11 11 10 10 10 10 10 10 10 10 10 9 9 9 9 9 10 9 10 10 10 10 10 10 10 10 9 9 9 9 9 9 9 9 9 9 9 9 9 9
10 11 11 10 10 10 10 10 10 10 9 9 9 9 9 9 9 9 9 9 9 9 9 9 9 9 9 9 9 9 9 9 9 9 9 9 8 9 8 8 8 8 9
10 10 10 10 10 10 10 10 9 9 9 9 9 9 9 8 8 8 8 8 8 8 8 9 8 8 9 9 9 9 9 8 8 8 8 8 8 8 8 8 8 8 8
10 10 9 9 9 9 9 9 9 9 9 8 8 8 8 8 8 8 8 8 8 8 8 8 8 8 8 8 8 8 8 8 8 8 8 8 8 8 8 8 8 8 8
9 9 9 9 9 9 9 8 8 8 8 8 8 8 8 7 8 7 8 7 7 7 7 7 7 7 8 8 8 8 8 8 8 8 8 8 8 8 7 7 7 7 7
8 8 8 8 8 8 8 8 8 8 7 7 7 7 7 7 7 7 7 7 7 7 7 7 7 7 7 7 7 7 8 7 8 8 7 7 7 7 7 7 7 7 7
8 8 8 8 7 7 7 7 7 7 7 7 7 7 6 6 7 7 7 6 6 6 6 6 7 7 7 7 7 7 7 7 7 7 7 7 7 7 7 7 7 6 6
7 7 7 7 7 7 7 7 7 6 6 6 6 6 6 6 6 6 6 6 6 6 6 6 6 6 6 7 6 6 7 7 7 7 7 6 6 6 6 6 6 6 6
7 7 7 6 6 6 6 6 6 6 6 6 5 5 5 5 5 6 6 5 5 5 5 5 5 6 6 6 6 6 6 6 6 6 6 6 6 6 6 6 6 6 6
6 6 6 6 6 6 6 5 5 5 5 5 5 5 5 5 5 5 5 5 5 5 5 5 5 5 5 5 5 6 6 6 5 5 5 5 6 5 5 6 6 6 6
6 6 5 5 5 5 5 5 5 5 4 4 4 4 4 4 4 4 4 4 4 4 4 4 4 4 4 5 5 5 5 5 5 5 5 5 5 5 5 5 5 5 5
5 5 5 5 5 4 4 4 4 4 4 4 4 4 3 3 4 4 4 4 4 4 4 4 4 4 4 4 4 4 4 4 4 5 4 4 4 5 5 5 5 5 5
5 4 4 4 4 4 4 4 3 3 3 3 3 3 3 3 3 3 3 3 3 3 3 3 3 3 3 3 3 3 3 3 4 4 4 4 4 4 4 4 4 4 4
4 4 4 4 4 3 3 3 3 3 3 3 3 3 3 3 3 3 3 3 2 2 2 2 2 2 2 3 3 3 3 3 3 3 3 3 3 3 3 4 4 4 4
4 4 4 3 3 3 3 2 2 2 2 2 2 2 2 2 2 2 2 2 2 2 2 2 2 2 2 2 2 2 2 2 2 3 3 3 3 3 3 3 3 3 3
3 3 3 3 3 3 2 2 2 2 2 2 2 2 2 2 2 2 2 1 1 1 1 1 1 1 1 1 1 1 1 2 2 2 2 2 2 2 2 2 3 3 3
3 3 3 3 2 2 2 2 1 1 1 1 1 1 1 1 1 1 1 1 1 1 1 1 1 1 1 1 1 1 1 1 1 1 1 2 2 2 2 2 2 2 2
2 3 2 2 2 2 1 1 1 1 1 1 0 1 1 1 0 0 0 0 0 0 0 0 0 0 0 1 1 1 1 1 1 1 1 1 1 1 1 1 1 1 2
2 2 2 2 1 1 1 1 0 0 0 0 0 0 0 0 -0 -0 -0 -0 -0 -0 -0 -0 -0 -0 0 0 0 0 0 0 0 0 1 1 1 1 1 1 1 1 1
2 2 1 1 1 1 0 0 0 -0 -0 -0 -0 -0 -0 -1 -1 -1 -1 -1 -1 -1 -1 -1 -1 -1 -0 -0 -0 -0 -0 -0 -0 0 0 0 0 0 0 0 1 1 1
1 1 1 1 0 0 0 0 -0 -0 -0 -1 -1 -1 -1 -1 -1 -1 -1 -1 -1 -1 -1 -1 -1 -1 -1 -1 -1 -1 -1 -0 -0 -0 -0 -0 -0 -0 -0 0 0 0 0
1 1 0 0 0 -0 -0 -0 -1 -1 -1 -1 -1 -1 -1 -1 -1 -1 -1 -1 -1 -2 -2 -2 -2 -2 -1 -1 -1 -1 -1 -1 -1 -1 -1 -0 -0 -0 -0 -0 -0 0 0
0 0 -0 -0 -0 -0 -1 -1 -1 -1 -1 -1 -1 -2 -2 -2 -2 -2 -2 -2 -2 -2 -2 -2 -2 -2 -2 -2 -2 -1 -1 -1 -1 -1 -1 -1 -1 -1 -1 -1 -0 -0 -0
Wind_Speed
2 2 2 2 1 1 1 1 1 1 1 1 1 1 1 1 1 0 1 1 2 1 1 1 1 1 1 1 1 2 2 3 3 2 1 1 1 2 1 2 1 1 1
1 2 2 2 2 2 1 1 1 1 1 1 1 1 1 1 1 1 1 1 2 2 2 2 1 1 2 1 1 2 2 3 3 3 2 1 2 2 2 2 2 1 0
1 2 1 1 2 2 1 1 1 1 0 1 1 1 1 1 1 1 1 1 1 2 2 3 2 2 2 2 2 2 2 2 2 3 2 1 2 2 2 2 2 2 1
1 2 2 2 2 1 1 1 1 0 0 1 1 1 1 1 1 1 1 1 1 2 2 2 3 3 3 3 2 2 2 2 2 2 2 1 1 2 2 2 2 2 2
1 2 2 1 1 1 1 0 0 0 1 0 1 1 1 1 1 2 2 2 2 2 2 2 2 2 3 3 2 2 2 2 2 2 2 2 2 1 2 2 2 2 2
2 2 1 1 1 1 1 1 0 0 1 1 1 1 1 1 2 2 3 2 2 2 2 2 2 2 1 1 2 3 3 3 3 2 3 3 3 3 2 3 3 2 2
2 2 2 1 1 1 1 1 1 1 0 1 1 1 1 0 1 1 3 3 2 2 2 2 2 2 2 3 2 3 3 3 4 4 4 4 4 3 3 4 4 4 3
2 2 2 1 1 1 1 1 1 1 1 1 1 1 1 1 0 1 3 3 2 2 2 2 3 3 2 3 3 3 3 3 3 4 4 4 4 4 4 5 5 4 3
2 2 2 2 2 2 2 2 1 1 1 1 1 1 2 1 1 1 3 2 2 2 2 2 3 3 2 4 4 4 4 2 1 2 3 2 2 3 3 3 3 3 3
2 2 2 2 2 2 2 1 1 1 1 1 1 1 2 2 1 1 3 2 2 2 2 2 2 3 3 3 4 4 4 3 2 2 3 3 3 3 4 4 4 4 3
3 2 2 2 2 2 1 1 1 0 1 1 1 1 2 2 1 0 2 2 2 2 2 2 2 3 4 3 5 4 4 4 3 3 3 3 3 3 3 4 4 4 4
2 1 1 1 0 0 1 0 1 1 1 1 1 1 1 2 2 1 1 2 3 2 2 2 2 2 3 3 3 3 3 4 3 3 3 3 3 3 3 4 4 5 5
1 1 1 1 1 0 1 1 1 1 0 1 1 1 2 2 2 1 1 2 3 3 2 3 3 3 3 2 2 3 3 3 3 3 3 3 3 3 3 3 3 4 4
1 1 1 1 1 1 0 1 1 0 0 1 1 1 1 2 2 2 1 1 1 2 2 2 1 1 2 2 2 2 2 2 3 3 4 3 3 3 3 3 3 3 3
1 1 1 1 1 1 1 1 0 1 1 1 1 2 1 2 3 4 3 2 2 2 2 2 2 2 2 2 2 2 2 2 2 2 3 3 3 3 3 3 3 3 4
1 1 0 0 0 0 1 1 3 2 3 3 4 3 2 2 3 3 4 4 3 2 1 1 2 2 2 3 3 2 2 2 2 3 3 3 3 3 3 3 3 3 4
1 0 0 0 0 0 0 0 1 2 2 2 3 3 4 4 3 3 3 2 1 0 1 2 2 3 3 3 3 3 3 3 3 3 3 3 3 3 3 3 3 3 3
0 0 0 0 0 0 0 0 0 1 1 2 2 2 3 3 3 3 3 2 1 0 2 2 3 3 3 3 3 3 3 3 3 3 3 3 3 3 3 4 3 4 4
0 0 1 1 1 1 0 0 0 1 1 2 2 2 3 3 2 3 2 1 1 1 2 2 3 3 3 3 4 4 4 3 4 3 3 4 3 3 4 4 4 4 4
1 2 2 1 1 1 1 0 1 1 1 1 2 3 3 3 2 2 2 2 2 2 2 3 3 3 4 4 4 4 4 4 4 4 4 4 4 4 5 5 5 4 4
1 2 2 1 1 1 1 1 1 1 1 1 2 3 4 2 2 3 3 3 3 3 3 3 3 4 4 4 4 4 4 4 4 4 4 4 4 4 4 4 5 5 5
1 2 1 1 1 1 1 1 1 1 1 1 2 2 2 2 2 2 3 3 3 3 3 3 3 3 4 4 4 4 4 5 5 4 4 4 4 4 4 4 5 5 5
1 1 1 1 1 1 0 1 1 1 1 1 1 1 2 2 2 3 3 3 3 3 4 3 3 4 4 4 5 5 5 5 5 5 4 4 4 4 4 5 6 6 6
1 1 1 1 1 0 0 1 1 1 1 1 1 1 2 2 2 3 3 3 4 4 4 4 4 5 6 6 5 5 6 7 7 6 6 5 5 5 5 5 6 6 6
1 1 1 1 1 0 1 1 1 1 1 1 1 1 2 2 2 3 3 3 4 4 5 5 5 6 7 7 7 7 8 10 9 8 7 6 5 6 6 6 6 6 6
1 1 0 0 0 0 1 1 1 1 1 1 1 2 2 2 3 3 3 4 4 5 5 5 7 8 8 8 8 10 10 10 10 9 8 5 5 5 6 6 7 6 6
Wind_Direction
204 201 198 198 217 214 227 259 297 326 339 349 350 2 1 8 17 3 255 258 260 235 236 252 258 265 255 274 282 277 264 257 258 270 275 280 283 293 309 293 271 230 135
210 200 209 199 202 211 213 236 280 306 336 346 356 9 11 353 0 349 311 281 278 259 247 245 257 264 262 264 271 277 274 263 258 266 266 276 280 282 280 277 275 278 255
218 197 202 210 211 216 222 236 258 292 340 25 33 15 2 343 332 318 293 281 287 290 272 262 266 267 265 262 259 266 273 277 269 258 263 280 273 277 271 271 279 281 263
215 199 202 220 228 231 219 231 243 256 288 327 329 337 330 308 301 285 286 287 292 303 294 274 273 275 272 274 268 270 277 269 257 253 249 255 283 287 272 268 277 298 286
236 213 215 225 228 228 204 208 207 238 253 283 298 320 337 341 333 320 309 299 283 281 287 269 268 299 329 314 295 280 274 256 245 245 243 249 249 249 264 267 268 276 285
237 230 224 227 223 222 219 209 197 253 273 256 258 277 290 319 12 353 314 290 290 276 280 279 245 230 245 266 310 307 297 266 250 239 245 247 256 253 261 257 261 264 281
249 244 223 220 223 227 214 196 209 233 259 277 263 256 260 323 23 319 303 285 286 289 282 285 281 270 265 267 241 237 241 241 252 254 249 255 263 261 259 258 256 263 275
256 255 237 225 229 223 220 231 245 249 238 257 274 266 268 280 351 321 301 274 272 284 283 283 283 282 288 296 277 263 265 261 246 250 256 262 267 272 259 259 263 265 269
266 252 245 228 221 216 221 228 234 247 252 263 264 264 265 270 313 307 301 277 268 283 290 286 285 288 319 307 276 263 258 261 210 240 293 292 313 300 279 259 261 254 267
304 273 252 240 230 229 230 229 244 243 246 263 276 266 269 280 294 304 297 275 273 288 290 280 292 308 315 287 267 265 261 265 254 226 235 230 241 225 223 239 245 252 269
320 313 298 252 231 223 222 206 180 196 244 265 272 284 276 290 288 299 311 286 281 279 281 280 300 333 321 291 279 273 282 282 255 243 244 248 245 244 237 245 254 251 258
335 341 330 313 258 193 154 159 156 152 195 246 268 305 306 298 307 276 288 299 313 280 279 285 314 346 334 317 288 312 313 284 258 242 241 246 249 250 254 258 259 260 264
348 360 1 27 55 106 141 153 165 163 191 269 289 304 317 322 334 352 295 298 311 291 288 324 338 340 316 296 309 307 281 268 262 253 254 262 263 262 264 266 270 269 273
16 11 15 38 43 47 106 156 171 172 223 271 287 297 306 318 336 343 318 281 281 286 287 296 299 318 293 320 327 296 276 271 261 260 266 277 279 266 258 258 263 264 269
19 23 19 34 31 32 43 34 6 29 9 306 285 284 289 302 342 355 338 318 308 307 305 304 318 320 320 320 311 309 306 289 273 274 279 282 281 273 272 272 265 267 267
349 3 13 41 39 13 35 42 57 41 40 27 7 356 340 351 6 1 351 349 350 337 297 300 308 306 313 316 315 315 312 305 297 290 280 281 281 275 274 272 270 266 269
285 319 57 94 85 88 18 17 17 37 54 51 37 21 10 9 10 360 358 1 6 344 281 290 295 298 304 309 311 312 309 308 299 288 287 288 286 279 274 268 266 268 269
231 60 65 82 135 128 103 4 339 351 1 7 26 27 14 11 12 16 15 19 17 249 291 296 299 302 305 307 312 314 307 307 303 291 286 283 282 281 280 275 269 268 267
174 91 91 73 77 95 88 65 15 336 1 8 6 18 23 9 22 39 46 14 347 332 325 316 312 310 310 310 311 310 302 296 298 297 291 286 281 283 282 282 280 276 272
123 91 79 82 76 87 90 80 54 25 21 26 16 13 18 18 20 21 10 349 337 332 332 331 327 323 318 316 314 310 305 302 303 299 298 294 289 284 283 282 284 276 268
110 115 110 92 77 72 82 73 56 48 41 24 17 27 22 5 4 1 357 351 341 333 333 332 328 325 325 324 319 312 309 307 305 299 294 292 291 290 291 287 284 281 276
117 112 108 91 73 58 39 51 64 54 43 24 10 24 27 6 5 354 349 347 342 336 333 330 327 325 323 320 317 315 311 306 301 297 297 291 286 284 281 279 278 275 273
121 118 109 93 76 86 58 36 63 48 25 12 13 15 7 356 354 348 343 340 337 335 335 330 321 320 322 319 317 312 309 309 305 301 296 295 290 285 280 277 276 274 269
127 124 109 94 85 71 28 10 19 38 20 1 357 356 350 340 336 334 332 331 330 329 329 325 321 321 321 321 320 316 314 316 313 306 296 288 288 286 282 281 277 273 272
137 131 113 98 79 26 351 342 341 354 359 342 337 337 335 332 331 329 327 328 328 327 327 326 322 321 320 321 323 323 324 323 318 313 306 295 286 284 283 280 278 274 271
148 141 132 111 69 357 334 325 326 335 336 327 320 319 321 324 324 322 323 326 327 323 321 322 324 324 322 322 323 326 326 323 319 313 307 297 289 285 287 285 283 275 270
Height
1528 1528 1529 1529 1529 1529 1529 1529 1529 1528 1527 1527 1526 1526 1525 1525 1524 1524 1523 1524 1524 1524 1524 1524 1524 1524 1524 1524 1523 1523 1523 1523 1523 1522 1521 1521 1520 1519 1519 1518 1518 1518 1517
1525 1526 1526 1527 1527 1527 1527 1527 1526 1526 1525 1525 1524 1524 1523 1523 1522 1522 1521 1521 1522 1522 1522 1522 1522 1522 1522 1522 1521 1521 1521 1520 1520 1519 1519 1518 1518 1517 1517 1516 1516 1516 1515
1523 1524 1524 1524 1525 1525 1525 1524 1524 1524 1523 1523 1522 1522 1521 1520 1520 1520 1519 1519 1519 1520 1520 1520 1520 1520 1520 1520 1519 1519 1518 1518 1517 1517 1516 1515 1515 1515 1515 1514 1514 1514 1513
1521 1521 1522 1522 1522 1522 1522 1522 1521 1521 1521 1520 1520 1519 1519 1518 1518 1518 1517 1517 1517 1517 1517 1517 1517 1517 1517 1517 1517 1516 1516 1515 1515 1515 1514 1514 1513 1513 1513 1512 1512 1511 1511
1518 1519 1519 1520 1520 1519 1519 1519 1519 1519 1518 1518 1517 1517 1516 1516 1516 1515 1515 1514 1514 1514 1514 1514 1514 1514 1514 1514 1514 1513 1513 1513 1513 1512 1512 1512 1511 1511 1511 1510 1510 1509 1509
1516 1516 1517 1517 1517 1517 1516 1516 1516 1516 1516 1515 1515 1514 1514 1513 1513 1512 1512 1512 1512 1512 1511 1511 1511 1511 1511 1510 1510 1510 1510 1510 1510 1510 1510 1510 1509 1509 1509 1508 1508 1507 1507
1514 1514 1514 1514 1514 1514 1513 1513 1513 1513 1512 1512 1512 1511 1511 1511 1510 1510 1509 1509 1509 1509 1508 1508 1508 1508 1508 1508 1507 1507 1507 1507 1507 1508 1508 1507 1507 1507 1506 1506 1506 1505 1505
1512 1512 1512 1511 1511 1511 1511 1511 1510 1510 1509 1509 1508 1508 1508 1507 1507 1507 1506 1506 1506 1506 1505 1505 1505 1505 1505 1505 1504 1504 1504 1504 1504 1504 1505 1504 1504 1504 1504 1504 1504 1503 1503
1509 1509 1509 1509 1509 1508 1508 1508 1507 1507 1507 1506 1506 1505 1505 1505 1504 1504 1504 1503 1503 1503 1502 1502 1502 1502 1502 1501 1502 1502 1502 1501 1501 1501 1501 1501 1501 1501 1501 1501 1501 1501 1500
1506 1506 1506 1506 1506 1506 1505 1505 1504 1504 1504 1503 1503 1503 1503 1502 1502 1501 1501 1501 1501 1500 1499 1499 1499 1499 1498 1498 1498 1499 1498 1498 1498 1498 1498 1498 1498 1498 1498 1499 1499 1498 1498
1504 1503 1503 1503 1503 1503 1503 1502 1502 1501 1501 1500 1500 1500 1500 1500 1499 1498 1498 1498 1498 1497 1497 1496 1495 1495 1494 1494 1495 1495 1495 1495 1495 1496 1496 1496 1496 1496 1495 1496 1496 1496 1496
1501 1501 1501 1501 1500 1500 1500 1500 1499 1499 1498 1498 1497 1497 1497 1497 1496 1496 1495 1495 1495 1495 1494 1493 1492 1492 1491 1491 1491 1491 1491 1492 1492 1493 1493 1493 1493 1493 1493 1493 1493 1493 1492
1500 1499 1499 1498 1498 1498 1497 1497 1497 1497 1496 1495 1495 1494 1494 1494 1493 1493 1493 1492 1492 1492 1491 1490 1489 1489 1488 1488 1488 1488 1488 1489 1489 1489 1490 1490 1490 1490 1490 1489 1489 1489 1489
1498 1497 1497 1496 1496 1496 1495 1495 1495 1494 1494 1493 1493 1492 1492 1491 1491 1490 1490 1490 1490 1489 1488 1488 1487 1486 1485 1485 1485 1485 1485 1485 1486 1486 1486 1486 1486 1486 1486 1486 1486 1486 1485
1496 1496 1495 1495 1494 1494 1493 1493 1493 1492 1492 1492 1491 1491 1490 1489 1489 1488 1487 1487 1487 1487 1486 1485 1484 1484 1483 1482 1482 1482 1482 1482 1482 1483 1483 1483 1483 1483 1483 1483 1482 1482 1482
1495 1494 1494 1493 1493 1492 1492 1491 1491 1491 1490 1489 1489 1489 1488 1488 1487 1486 1486 1485 1485 1484 1484 1483 1482 1482 1481 1481 1480 1480 1480 1479 1479 1480 1480 1479 1479 1479 1479 1479 1479 1479 1478
1493 1492 1492 1491 1491 1491 1490 1489 1489 1489 1488 1488 1487 1487 1486 1485 1485 1484 1483 1483 1482 1482 1481 1481 1481 1480 1479 1479 1478 1478 1478 1477 1477 1477 1476 1476 1476 1476 1476 1476 1475 1475 1474
1491 1490 1490 1490 1490 1489 1489 1488 1488 1487 1486 1486 1485 1485 1484 1484 1483 1482 1481 1481 1480 1480 1479 1479 1479 1478 1478 1477 1476 1476 1475 1475 1474 1474 1473 1473 1472 1472 1472 1472 1471 1471 1470
1489 1489 1488 1488 1488 1488 1488 1487 1487 1486 1485 1485 1484 1484 1483 1482 1481 1481 1480 1479 1479 1478 1478 1478 1477 1477 1476 1475 1474 1473 1473 1473 1472 1471 1470 1470 1469 1469 1469 1469 1468 1467 1467
1487 1487 1487 1487 1487 1486 1486 1486 1486 1485 1484 1484 1483 1482 1482 1481 1480 1479 1479 1479 1478 1478 1477 1476 1476 1475 1474 1473 1472 1471 1471 1470 1469 1469 1468 1467 1466 1466 1466 1465 1464 1464 1463
1486 1485 1485 1485 1485 1485 1485 1485 1485 1485 1484 1483 1483 1482 1481 1480 1480 1479 1479 1478 1477 1477 1476 1475 1474 1473 1472 1471 1470 1469 1468 1467 1467 1466 1465 1464 1463 1462 1462 1461 1461 1460 1459
1484 1484 1484 1484 1484 1484 1484 1484 1484 1483 1483 1482 1482 1481 1480 1480 1479 1479 1478 1477 1476 1475 1474 1473 1472 1471 1470 1469 1467 1466 1465 1464 1463 1462 1461 1460 1460 1459 1458 1458 1457 1456 1455
1483 1483 1483 1483 1483 1483 1483 1483 1483 1482 1482 1481 1481 1480 1479 1479 1478 1477 1477 1476 1474 1473 1472 1471 1470 1469 1467 1466 1465 1464 1462 1461 1460 1459 1458 1457 1456 1455 1455 1454 1453 1452 1451
1482 1482 1482 1481 1481 1482 1482 1481 1481 1481 1480 1480 1479 1479 1478 1477 1477 1476 1475 1474 1473 1471 1470 1469 1468 1466 1465 1463 1462 1461 1459 1458 1457 1456 1455 1453 1452 1451 1451 1450 1449 1448 1447
1480 1480 1480 1480 1480 1480 1480 1480 1480 1479 1479 1478 1478 1477 1476 1476 1475 1474 1473 1472 1471 1470 1468 1467 1465 1464 1462 1461 1459 1458 1456 1455 1453 1452 1451 1449 1448 1447 1447 1446 1445 1444 1443
1479 1479 1479 1479 1479 1479 1478 1478 1478 1477 1477 1476 1476 1475 1475 1474 1473 1472 1471 1470 1469 1467 1466 1464 1463 1461 1460 1458 1456 1455 1453 1451 1450 1448 1447 1446 1444 1444 1443 1442 1440 1440 1439